Location: Buck Hollow
(37.2967°N, 90.2884°W)
Time: 01:46:27
(UTC+00:00)

Daily predictions for brighter satellites

Satellite Brightness Start Highest point End
(mag) Time Altitude Azimuth Time Altitude Azimuth Time Altitude Azimuth
NOSS 3-4 (A) 4.2 01:41:51 10° NW 01:49:05 78° WSW 01:57:21 10° SSE
NOSS 3-4 (C) 4.2 01:41:54 10° NW 01:49:07 79° WSW 01:57:20 10° SSE
Cosmos 1666 Rocket 3.5 01:50:25 10° N 01:54:46 82° E 01:59:07 10° S
COSMOS 2406 3.2 01:49:04 10° SSW 01:54:47 77° ESE 02:00:33 10° NNE
Cosmos 1766 3.7 01:51:31 10° N 01:55:06 41° E 01:58:38 10° SSE
Cosmos 1092 Rocket 4.1 01:49:49 10° S 01:56:08 80° E 02:02:30 10° N
Cosmos 1674 2.9 01:53:55 10° SSE 01:57:11 41° E 02:00:28 10° NNE
Cosmos 1980 Rocket 2.3 01:51:57 10° NNW 01:57:37 65° ENE 02:03:12 10° SSE
CSL-04 Debris 4.2 01:52:36 10° SSE 01:58:01 80° ENE 02:03:26 10° N
SPOT 1/Viking Rocket 4.4 01:54:48 10° S 01:59:47 52° W 02:04:48 10° NNW
Cosmos 1763 Rocket 4.2 01:55:14 10° N 02:00:09 39° ENE 02:04:57 10° SE
ATLAS CENTAUR R/B 3.0 02:02:10 10° ESE 02:02:50 10° ESE 02:03:30 10° E
USA 234 3.3 02:00:24 10° NE 02:06:51 59° SE 02:13:15 10° SSW
IRIDIUM 114 4.4 02:08:24 10° N 02:13:33 59° E 02:18:41 10° SSE
Resurs 01 Rocket 2.0 02:10:56 10° S 02:15:18 64° W 02:19:41 10° NNW
Terra 3.4 02:16:12 11° ESE 02:19:20 19° ENE 02:22:39 10° NNE
Cosmos 2026 Rocket 4.5 02:15:09 10° SSW 02:21:15 63° W 02:27:20 10° N
IRIDIUM 103 4.3 02:17:30 10° N 02:22:43 73° E 02:27:55 10° S
Lacrosse 5 rocket 4.0 02:24:27 10° W 02:25:46 11° WSW 02:27:06 10° SW
ARGOS Delta rocket 4.3 02:23:05 14° SE 02:26:36 40° ENE 02:30:43 10° N
Cosmos 1470 3.0 02:23:19 10° N 02:26:53 45° E 02:29:33 16° SSE
CZ-4 R/B 4.0 02:27:12 10° SW 02:29:58 18° W 02:32:46 10° NW
Ariane Rocket 4.5 02:27:25 13° ESE 02:30:35 22° ENE 02:34:26 10° NNE
CZ-4B R/B 4.3 02:26:05 10° S 02:31:02 41° W 02:36:03 10° NNW
Cosmos 468 Rocket 4.3 02:26:11 10° N 02:31:15 50° ENE 02:35:01 17° SE
KORONAS-FOTON 3.9 02:29:57 10° S 02:33:38 76° W 02:37:22 10° N
Cosmos 1842 3.7 02:35:45 10° SSW 02:39:20 56° W 02:42:56 10° N
SJ 16-02 3.3 02:40:03 12° E 02:40:03 12° E 02:41:21 10° ENE
ATLAS 2AS CENTAUR R/B 4.3 02:39:31 10° N 02:44:34 21° NE 02:49:30 10° E
Cosmos 2360 Rocket 3.9 02:44:55 10° N 02:48:58 20° NE 02:52:15 13° E
IRS-1C Rocket 4.2 02:45:32 19° SSE 02:49:19 65° ENE 02:54:31 10° N
In-Cosmos 22 4.2 02:44:13 10° S 02:49:50 70° E 02:55:22 10° NNE
Cosmos 540 Rocket 3.4 02:45:34 10° NNW 02:50:44 85° ENE 02:54:15 21° SSE
RESURS DK-1 4.0 02:50:49 10° N 02:53:59 22° ENE 02:55:35 17° E
SPOT 3 Rocket 4.4 02:51:37 21° ESE 02:54:15 34° ENE 02:58:50 10° N
Cosmos 968 Rocket 4.2 02:57:17 25° SE 02:59:14 33° E 03:03:50 10° NE
SL-16 R/B 2.6 02:54:44 10° N 03:00:13 48° ENE 03:03:14 25° SE
Cosmos 2333 Rocket 3.8 02:57:38 10° N 03:02:08 23° NE 03:05:07 16° E
MOS 1 Rocket 4.1 02:59:27 25° SE 03:02:15 45° ENE 03:07:19 10° N
Cosmos 1741 Rocket 4.2 02:58:34 18° S 03:02:18 52° ESE 03:07:26 10° NNE
Okean-O 3.4 02:58:42 13° S 03:02:26 47° W 03:06:42 10° NNW
Cosmos 1707 4.2 03:01:04 10° SW 03:04:21 34° W 03:07:40 10° NNW
Cosmos 1733 Rocket 4.4 03:01:17 10° NNE 03:04:50 23° ENE 03:05:48 22° E
SeaSat 1 2.7 03:02:21 27° SE 03:04:55 56° ENE 03:09:43 10° NNW
Atlas Centaur 2 3.3 03:01:26 10° WSW 03:09:16 52° S 03:14:18 24° ESE
Cosmos 1758 4.2 03:06:10 10° NNE 03:09:40 31° ENE 03:10:17 29° E
USA 245 3.0 03:10:21 45° SSE 03:11:16 73° ENE 03:15:17 10° N
SPOT 5 3.3 03:14:17 20° SSW 03:16:59 49° W 03:21:13 10° NNW
IRS-1A Rocket 4.3 03:14:38 23° S 03:18:11 73° WSW 03:23:42 10° NNW
SL-08 ROCKET BODY 4.4 03:14:48 15° S 03:20:01 87° W 03:26:08 10° N
Cosmos 2228 Rocket 3.2 03:18:36 36° SSE 03:20:15 61° E 03:24:46 10° NNE
Okean O Rocket 4.2 03:20:26 10° SW 03:22:51 15° W 03:25:17 10° WNW
Tiangong -1.8 03:19:51 10° WNW 03:22:45 53° SW 03:22:45 53° SW
Cosmos 1356 Rocket 3.3 03:25:55 45° SSE 03:27:05 71° E 03:31:16 10° NNE
Spot 1 4.4 03:22:40 10° NNE 03:27:12 54° ESE 03:28:28 41° SSE
Cosmos 1869 Rocket 3.9 03:23:53 10° NNW 03:28:17 62° W 03:30:17 31° SSW
Meteor 1-12 Rocket 4.3 03:24:15 10° N 03:30:17 74° E 03:32:54 35° SSE
S3M 4.0 03:24:43 10° N 03:31:05 82° W 03:34:41 28° S
Cosmos 1400 Rocket 3.6 03:28:43 20° SW 03:31:09 47° W 03:34:53 10° N
ERS-1 Rocket 3.3 03:30:43 29° S 03:33:14 61° W 03:38:13 10° NNW
Cosmos 1655 Rocket 4.1 03:34:27 22° S 03:38:46 83° W 03:45:12 10° N
Meteor 1-22 Rocket 4.4 03:33:13 10° NNW 03:38:53 71° W 03:41:50 31° S
ATLAS CENTAUR R/B 2.2 03:36:43 10° SW 03:40:01 41° NW 03:43:23 10° NNE
Cosmos 841 Rocket 3.5 03:34:55 10° NNW 03:40:13 81° WSW 03:41:59 43° S
Cosmos 2322 Rocket 2.2 03:37:31 10° NNW 03:43:11 69° ENE 03:44:58 44° SE
Cosmos 1300 2.4 03:39:47 10° N 03:43:15 80° NE 03:43:15 80° NE
Spot 2 Rocket 3.7 03:42:27 37° S 03:44:24 66° WSW 03:49:28 10° NNW
Aureole 3 3.2 03:48:01 70° E 03:48:01 70° E 03:52:26 10° NNE
Cosmos 1315 Rocket 3.7 03:49:43 36° ENE 03:49:43 36° ENE 03:52:44 10° NNE
Meteor 2-10 Rocket 3.8 03:49:10 10° NNW 03:54:39 66° W 03:56:28 40° SSW
Cosmos 1953 3.8 03:52:09 10° NNE 03:54:38 24° ENE 03:54:38 24° ENE
Cosmos 1862 Rocket 3.7 03:55:14 52° SW 03:56:10 71° W 04:00:35 10° N
Terra 2.8 03:54:54 29° SW 03:56:36 39° W 04:01:01 10° NNW
Meteor 1-21 4.4 03:54:03 31° SSW 03:56:53 75° W 04:02:44 10° N
Landsat 5 3.9 04:01:12 10° N 04:05:11 57° WNW 04:05:57 48° WSW
COSMOS 2428 4.5 04:03:11 10° N 04:07:20 20° NE 04:09:13 17° E
Cosmos 2219 Rocket 2.8 04:03:23 10° N 04:08:47 43° ENE 04:09:56 38° E
Okean 3 3.6 04:08:31 59° WSW 04:08:51 61° W 04:12:58 10° N
Ariane Rocket 3.9 04:07:33 31° SW 04:09:11 40° W 04:13:58 10° NNW
CZ-2C R/B 4.3 04:06:29 10° NNE 04:10:01 43° ENE 04:10:01 43° ENE
BlueWalker 3 4.2 04:15:31 16° NE 04:15:31 16° NE 04:16:24 10° NE
SJ 16-02 2.0 04:16:45 42° WSW 04:17:37 49° WNW 04:21:49 10° N
Meteor 1-4 Rocket 4.3 04:21:23 25° NNW 04:21:23 25° NNW 04:22:58 10° N
H-2A R/B 4.3 04:22:54 22° ENE 04:22:54 22° ENE 04:25:51 10° NNE
COSMOS 2455 3.6 04:24:42 35° E 04:24:42 35° E 04:29:19 10° NE
CZ-4C R/B 3.6 04:28:06 18° ENE 04:28:06 18° ENE 04:29:51 10° NE
Cosmos 1346 Rocket 4.1 04:23:01 10° NNW 04:26:15 32° W 04:26:15 32° W
SL-08 R/B 4.3 04:25:30 59° S 04:26:45 86° E 04:32:52 10° N
ARIANE 5 R/B 3.2 04:31:12 47° NE 04:31:12 47° NE 04:34:50 10° N
DNEPR-1 R/B 4.4 04:24:48 10° NNW 04:31:03 57° NE 04:31:50 52° E
RESURS DK-1 4.0 04:28:13 10° NW 04:31:10 26° W 04:31:10 26° W
Cosmos 2360 Rocket 2.4 04:27:47 10° NNW 04:33:20 58° WSW 04:34:00 54° SW
ATLAS 2AS CENTAUR R/B 2.5 04:29:29 10° NNW 04:36:16 82° WSW 04:37:28 62° SSE
SeaSat 1 4.4 04:42:03 16° WSW 04:42:36 17° WSW 04:45:40 10° WNW
SL-16 R/B 3.9 04:39:46 10° NW 04:43:52 21° W 04:45:05 19° WSW
Cosmos 1455 3.7 04:42:05 10° N 04:44:05 32° NNW 04:44:05 32° NNW
SL-24 R/B - RUBIN 2 4.4 04:39:38 10° NNW 04:46:09 68° ENE 04:47:01 60° ESE
Cosmos 2333 Rocket 2.6 04:41:08 10° NNW 04:46:39 49° WSW 04:47:07 48° WSW
USA 281 3.2 04:45:41 57° SE 04:47:01 72° ENE 04:53:34 10° NNW
Okean 1-7 4.1 04:47:58 37° W 04:48:01 37° W 04:52:02 10° N
CZ-2C R/B 3.3 04:50:23 66° ESE 04:50:38 67° E 05:03:55 10° N
GP-B 3.6 04:49:43 10° N 04:53:24 58° NNW 04:53:24 58° NNW
Cosmos 1908 Rocket 4.3 04:52:11 10° NNW 04:55:38 49° NW 04:55:38 49° NW
Atlas Centaur 2 3.8 04:50:47 10° W 04:56:31 32° SW 04:56:31 32° SW
Cosmos 1782 Rocket 4.3 04:54:57 10° N 04:58:10 47° NNE 04:58:10 47° NNE
Cosmos 2237 Rocket 3.8 05:03:28 10° N 05:08:01 24° ENE 05:09:20 22° ENE
Meteor 1-24 Rocket 4.2 05:08:46 49° E 05:08:46 49° E 05:13:52 10° NNE
Cosmos 2227 Rocket 3.8 05:10:41 22° ENE 05:10:41 22° ENE 05:13:44 10° NE
Cosmos 1745 Rocket 4.0 05:08:42 63° SW 05:09:34 72° W 05:15:56 10° N
Cosmos 2322 3.6 05:04:52 10° NNW 05:10:29 81° NE 05:10:29 81° NE
Cosmos 839 Rocket 4.1 05:05:34 10° NW 05:11:57 60° WSW 05:12:09 60° WSW
Cosmos 2208 Rocket 4.2 05:09:24 10° NNW 05:14:06 66° NNE 05:14:06 66° NNE
H-2A R/B 4.3 05:13:03 10° NE 05:14:25 17° ENE 05:14:25 17° ENE
Cosmos 1300 Rocket 4.5 05:13:23 10° N 05:16:26 45° N 05:16:26 45° N
Cosmos 1503 Rocket 4.5 05:20:32 54° ENE 05:20:32 54° ENE 05:24:52 10° NNE
ALOS 2 3.5 05:23:09 45° NNE 05:23:09 45° NNE 05:26:22 10° N
Nadezhda 1 Rocket 4.1 05:17:52 10° NNW 05:24:02 63° W 05:24:27 61° WSW
Cosmos 2322 Rocket 4.3 05:23:40 10° WNW 05:26:31 14° W 05:26:46 14° W
Cosmos 2297 Rocket 2.3 05:29:40 68° NE 05:29:40 68° NE 05:34:42 10° NNE
Cosmos 2181 Rocket 4.5 05:25:09 10° N 05:31:03 45° ENE 05:31:22 45° E
CENTAUR R/B 3.5 05:33:38 30° E 05:33:38 30° E 05:37:43 10° NE
CZ-3 Stage 3 3.8 05:08:31 10° W 05:35:02 50° SSW 05:35:53 49° SSW
Meteor 2-5 Rocket 3.7 05:41:48 82° WNW 05:41:48 82° WNW 05:47:37 10° N
Cosmos 371 Rocket 4.2 05:50:32 42° NW 05:50:32 42° NW 05:54:38 10° N
COSMOS 2428 3.1 05:46:22 10° NNW 05:51:11 52° WNW 05:51:11 52° WNW
Cosmos 2219 Rocket 3.8 05:47:58 10° NW 05:51:37 23° W 05:51:37 23° W
H-2A R/B 4.5 05:58:52 22° WNW 05:58:52 22° WNW 06:00:59 10° NW
Cosmos 1354 Rocket 4.3 06:01:43 65° NNW 06:01:43 65° NNW 06:06:28 10° NNE
Cosmos 2263 Rocket 3.7 06:03:48 24° E 06:03:48 24° E 06:07:19 10° NE
COSMOS 2455 4.1 06:07:48 27° W 06:09:45 33° NW 06:15:10 10° N
SL-12 R/B(2) 4.0 06:09:01 63° S 06:10:17 73° ESE 06:19:24 10° NE
NOSS 0 Rocket 4.1 06:04:15 10° NNW 06:10:02 62° W 06:10:02 62° W
Cosmos 1295 Rocket 4.4 06:12:48 71° E 06:12:48 71° E 06:18:51 10° NNE
CZ-4C R/B 3.4 06:13:08 26° WNW 06:13:56 28° NW 06:18:29 10° NNE
NOSS 3-2 (A) 3.9 06:18:59 40° ENE 06:18:59 40° ENE 06:23:09 10° NE
Nadezhda 3 Rocket 4.4 06:13:32 10° N 06:19:37 50° E 06:20:15 49° E
Cosmos 2184 Rocket 3.9 06:22:41 83° SW 06:22:54 86° W 06:29:19 10° N
Meteor 2-11 Rocket 4.4 06:27:04 71° E 06:27:07 71° E 06:33:10 10° NNE
Okean 1 Rocket 4.1 06:24:57 10° N 06:27:57 43° N 06:27:57 43° N
Cosmos 967 Rocket 4.4 06:39:22 78° SE 06:39:36 79° ESE 06:46:05 10° NNE
Cosmos 2154 Rocket 3.8 06:39:30 77° WSW 06:39:45 78° W 06:46:03 10° N
Cosmos 2327 Rocket 4.4 06:44:23 67° ESE 06:44:43 68° E 06:50:45 10° NNE
SL-16 R/B 3.1 06:39:44 10° N 06:45:10 44° ENE 06:46:35 37° E
SL-4 R/B 3.7 06:42:55 10° NW 06:45:06 29° NNW 06:45:06 29° NNW
Cosmos 990 Rocket 4.3 06:48:20 59° NW 06:48:20 59° NW 06:52:57 10° N
Cosmos 1975 Rocket 4.1 06:49:56 41° NE 06:49:56 41° NE 06:53:09 10° NNE
Cosmos 2082 3.8 06:51:06 65° E 06:51:06 65° E 06:56:26 10° NNE
H-2A R/B 3.8 06:48:33 10° NNW 06:51:12 24° NW 06:51:12 24° NW
Cosmos 2237 Rocket 3.0 06:46:53 10° NW 06:51:08 40° WNW 06:51:08 40° WNW
Cosmos 2227 Rocket 3.0 06:52:28 40° WNW 06:52:57 41° WNW 06:58:19 10° N
IDEFIX/ARIANE 42P 4.0 06:52:43 10° NE 06:57:08 27° E 06:57:28 27° ESE
SL-8 Rocket 4.4 06:57:09 47° ESE 06:58:04 50° E 07:04:01 10° NNE
Meteor 1-11 4.4 07:04:41 60° ESE 07:05:09 62° E 07:10:52 10° NNE
Cosmos 1455 Rocket 3.6 07:02:07 10° N 07:05:42 56° N 07:05:42 56° N
CZ-2D R/B 3.7 07:02:36 10° NE 07:06:47 23° E 07:07:38 22° ESE
Cosmos 962 Rocket 4.4 07:06:13 69° SSE 07:07:01 83° E 07:13:23 10° N
Meteor 1-21 Rocket 4.3 07:07:55 65° W 07:08:05 65° W 07:13:47 10° N
Cosmos 1538 Rocket 3.9 07:03:18 10° NNW 07:08:16 81° NNW 07:08:16 81° NNW
Celestis-02/Orion 38 4.5 07:11:02 87° WSW 07:11:02 87° WSW 07:16:27 10° NNW
Cosmos 2297 Rocket 4.4 07:11:25 12° WNW 07:13:43 15° NW 07:16:56 10° NNW
Cosmos 2219 3.6 07:15:09 48° W 07:15:36 49° WNW 07:21:04 10° N
Cosmos 1025 Rocket 4.5 07:17:45 29° NW 07:17:45 29° NW 07:20:41 10° NNW
Cosmos 1606 4.2 07:17:26 10° N 07:19:53 31° NE 07:19:53 31° NE
Cosmos 372 Rocket 3.9 07:22:08 82° WNW 07:22:08 82° WNW 07:27:23 10° NNE
CENTAUR R/B 3.4 07:20:44 29° W 07:22:37 36° NW 07:28:46 10° NNE
Aureole 1 Rocket 4.3 07:23:52 28° NNW 07:23:52 28° NNW 07:26:26 10° N
NPP 4.1 07:18:49 10° NNE 07:24:02 48° E 07:24:45 45° SE
Cosmos 2341 Rocket 3.8 07:27:49 65° SSW 07:28:48 83° W 07:35:03 10° N
USA 238 DEB 4.1 07:28:50 39° SE 07:29:49 42° ESE 07:35:49 10° NE
USA 238 4.1 07:28:52 38° SE 07:29:52 41° ESE 07:35:51 10° NE
Helios 1A Rocket 3.9 07:33:25 37° NNW 07:33:25 37° NNW 07:35:50 10° NNW
ADEOS II 3.6 07:28:22 10° NE 07:32:45 27° E 07:34:18 23° ESE
Cosmos 1461 3.5 07:36:27 48° NNW 07:36:27 48° NNW 07:39:34 10° NNE
Cosmos 923 Rocket 4.2 07:31:21 10° NNW 07:36:36 68° ENE 07:37:48 50° SE
Cosmos 1937 Rocket 3.5 07:38:33 65° W 07:38:54 67° WNW 07:44:09 10° NNE
Cosmos 864 Rocket 4.4 07:38:09 58° SSW 07:39:31 86° W 07:45:53 10° N
MOZ.5/SAFIR/RUBIN 5/SL-8 3.6 07:39:56 84° ESE 07:40:03 85° E 07:44:42 10° NNW
Meteor 2-1 Rocket 4.2 07:35:46 10° N 07:41:41 81° W 07:42:41 62° S
Cosmos 1898 Rocket 4.0 07:42:11 43° W 07:42:33 43° WNW 07:47:30 10° N
Resurs 1-4 Rocket 2.4 07:41:03 10° NNE 07:46:17 60° ESE 07:47:22 49° SSE
Cosmos 2263 Rocket 2.9 07:45:28 36° W 07:46:27 39° WNW 07:51:39 10° N
Cosmos 1821 Rocket 3.9 08:00:01 44° S 08:02:06 81° E 08:08:15 10° N
Cosmos 2218 Rocket 4.2 08:03:34 44° SW 08:05:07 54° W 08:11:11 10° N
Cosmos 1844 Rocket 3.0 08:04:20 40° SSE 08:06:03 57° ESE 08:11:30 10° NNE
Delta 2 Rocket 3.7 08:07:47 49° ESE 08:07:47 49° ESE 08:11:01 10° E
Cosmos 1869 4.2 08:03:42 10° NNW 08:06:12 34° NW 08:06:12 34° NW
ALOS 3.6 08:07:12 10° NNE 08:11:21 32° E 08:13:25 22° SE
Cosmos 2366 rocket 4.5 08:10:21 38° WSW 08:11:58 46° W 08:17:58 10° N
Cosmos 1437 Rocket 2.6 08:12:41 82° SE 08:12:47 83° E 08:16:36 10° N
NOSS 3-2 (C) 3.8 08:12:44 35° W 08:14:23 45° NW 08:20:04 10° NNE
Cosmos 1544 Rocket 4.0 08:13:55 10° NNW 08:18:04 44° W 08:18:04 44° W
Cosmos 1680 Rocket 3.4 08:13:36 10° NNW 08:18:46 67° WSW 08:20:14 45° SSW
Cosmos 2112 Rocket 3.8 08:15:52 10° NNW 08:21:03 77° WSW 08:23:05 37° S
USA 267 3.3 08:14:34 10° NE 08:21:05 69° SE 08:24:01 35° SSW
Cosmos 1818 3.4 08:15:51 10° NNW 08:21:20 78° WSW 08:24:47 23° SSE
Cosmos 2228 3.1 08:17:32 10° NNW 08:21:45 55° W 08:21:59 54° WSW
MSX 4.1 08:18:01 10° N 08:23:36 56° WNW 08:25:34 38° SW
COSMOS 2441 4.3 08:23:00 10° N 08:27:47 71° WNW 08:29:13 45° SW
SL-16 R/B 3.5 08:24:33 10° NW 08:28:24 23° W 08:28:24 23° W
Cosmos 1603 4.0 08:28:25 10° NNW 08:34:09 68° ENE 08:39:49 10° SSE
SL-16 R/B 2.9 08:29:11 10° SSE 08:35:21 66° ENE 08:41:32 10° N
IDEFIX/ARIANE 42P 3.5 08:31:57 10° N 08:36:36 33° WNW 08:38:13 27° WSW
CZ-2C R/B 2.8 08:37:16 36° SSW 08:39:01 51° W 08:44:14 10° NNW
SEDSat Delta rocket 3.6 08:41:06 32° SSE 08:41:06 32° SSE 08:44:27 10° ESE
Cosmos 1934 Rocket 4.3 08:36:19 20° S 08:40:52 69° E 08:47:12 10° NNE
Cosmos 2123 Rocket 4.5 08:36:15 10° N 08:42:21 59° E 08:48:27 10° SSE
CZ-2C R/B 3.4 08:37:43 10° N 08:42:53 50° WNW 08:44:53 32° SW
Cosmos 1943 3.2 08:38:26 10° NNW 08:43:57 61° WSW 08:47:43 21° S
CZ-2D R/B 2.8 08:41:57 10° N 08:46:51 39° WNW 08:48:55 28° WSW
FENGYUN 3A 3.8 08:45:01 10° N 08:50:17 57° WNW 08:52:54 29° SW
Cosmos 1606 Rocket 3.5 08:49:18 10° N 08:53:44 74° W 08:56:15 25° S
Envisat 3.9 08:49:07 10° NNE 08:53:58 45° E 08:58:28 12° S
Cosmos 921 Rocket 2.8 08:50:20 10° NNW 08:54:33 89° WSW 08:57:55 15° SSE
ASTEX 1 3.3 08:52:23 25° S 08:55:15 71° W 09:00:07 10° N
Cosmos 1048 Rocket 4.3 08:50:17 10° NNW 08:55:30 68° ENE 09:00:45 10° SSE
Cosmos 1125 Rocket 3.5 08:57:57 24° SSW 09:01:13 86° ESE 09:06:32 10° NNE
Cosmos 1867 4.5 09:01:14 21° WSW 09:04:14 37° NW 09:09:19 10° NNE
CZ-2C R/B 3.7 09:00:36 10° NNE 09:04:44 33° E 09:08:54 10° SSE
Orbus 7S? 3.6 09:02:40 10° NW 09:06:03 76° SW 09:12:58 10° SE
Cosmos 1726 Rocket 3.5 09:04:49 10° NNW 09:09:13 67° W 09:12:35 17° S
Cosmos 1238 Rocket 3.8 09:06:17 10° N 09:09:19 34° E 09:12:05 10° SSE
Iridium 2 3.1 09:09:46 40° W 09:09:46 40° W 09:12:07 10° NNW
Cosmos 494 Rocket 4.0 09:06:18 10° NNW 09:11:27 59° WSW 09:16:35 10° S
Cosmos 1812 2.5 09:08:45 10° N 09:12:20 82° E 09:15:38 12° S
ADEOS II 3.0 09:07:40 10° N 09:12:20 34° WNW 09:15:10 20° WSW
Cosmos 2150 Rocket 4.5 09:09:21 13° S 09:13:49 59° ESE 09:19:01 10° NNE
Cosmos 2058 2.8 09:12:19 20° S 09:15:02 82° W 09:19:07 10° N
IRAS Rocket 4.2 09:11:15 10° N 09:16:42 70° WNW 09:20:59 17° SSW
Cosmos 1844 4.5 09:15:24 20° WSW 09:18:59 40° WNW 09:24:25 10° N
SAR-Lupe-4 4.0 09:17:21 10° N 09:20:45 43° WNW 09:22:35 23° SW
USA 81 4.0 09:18:34 10° N 09:23:49 73° W 09:29:03 10° S
YAOGAN 6 3.5 09:21:06 10° NNE 09:24:07 38° E 09:27:05 10° S
Resurs 1-4 Rocket 3.9 09:22:20 10° NNW 09:25:31 16° WNW 09:28:26 11° W
ATLAS 5 CENTAUR R/B 1.5 09:25:49 16° S 09:28:08 47° ESE 09:31:25 10° NE
Iridium 4 Rocket 3.2 09:23:58 10° N 09:28:29 79° W 09:33:25 10° S
NOSS 2-2 (E) 3.9 09:25:46 13° S 09:28:38 39° ESE 09:31:37 10° NE
Timation 2 Rocket 4.2 09:23:52 16° SW 09:29:14 67° WNW 09:35:39 10° NNE
UNK 3.8 09:26:14 10° S 09:30:46 57° W 09:35:18 10° NNW
Cosmos 724 4.3 09:33:12 10° NNW 09:39:02 90° NE 09:44:55 10° SSE
Cosmos 1544 3.0 09:42:30 17° SW 09:44:03 33° W 09:46:28 10° NNW
Thor Agena Rocket 4.0 09:38:48 10° NNE 09:44:04 65° ESE 09:49:15 10° S
NOSS 2-3 (D) 3.5 09:42:01 11° SSW 09:45:33 59° ESE 09:49:16 10° NE
NOAA 11 4.3 09:40:17 10° N 09:45:43 66° WNW 09:51:06 10° SSW
Delta 2 Rocket 3.7 09:43:33 10° W 09:47:25 45° SSW 09:51:40 10° ESE
Cosmos 2058 Rocket 3.3 09:43:12 10° NNW 09:47:28 48° W 09:51:39 10° SSW
ALOS 3.7 09:44:48 10° NNW 09:48:19 22° WNW 09:51:42 11° WSW
Cosmos 1844 Rocket 4.4 09:46:21 10° W 09:50:17 19° NW 09:54:14 10° N
Cosmos 1758 Rocket 3.7 09:45:56 10° S 09:50:21 79° E 09:54:47 10° N
METEOR-M 4.5 09:47:45 10° N 09:52:54 50° WNW 09:58:02 10° SW
Cosmos 2298 Rocket 4.3 09:49:15 10° SSW 09:54:27 56° WNW 09:59:42 10° N
Cosmos 1666 4.4 09:51:39 10° SSE 09:54:38 28° E 09:57:38 10° NNE
BREEZE-M DEB (TANK) 4.0 09:54:25 10° WSW 09:57:52 74° NNW 10:10:29 10° NE
Cosmos 1607 4.2 09:54:44 10° NW 10:00:50 49° WSW 10:06:46 10° S
NOSS 2-2 (C) 3.6 10:00:17 10° SW 10:03:32 38° NW 10:06:28 10° NNE
USA 267 4.3 09:57:56 10° NNE 10:03:46 36° NNW 10:09:35 10° W
Cosmos 1605 Rocket 4.5 09:58:00 10° SSW 10:03:50 43° WNW 10:09:39 10° N
Cosmos 614 Rocket 4.5 10:01:32 10° NNW 10:06:39 66° ENE 10:11:41 10° SSE
Cosmos 1500 3.3 10:05:37 10° S 10:09:01 66° E 10:12:26 10° NNE
Cosmos 2278 Rocket 3.0 10:06:42 10° S 10:12:10 53° ESE 10:17:40 10° NNE
Meteor 2-2 Rocket 4.2 10:06:58 10° N 10:12:37 80° W 10:18:14 10° S
